When you browse on this site, cookies collect data to enhance your experience and personalize the content and advertising you see.
Visit our Privacy Policy to learn more. By continuing to use the site, you agree to this use of cookies and data.
  • In Sweden
  • List of Countries
  • For 7 days
  • Water Temperature
  • Satellite Maps
  • Weather Map
  • Weather Widgets
  • user-avatar
    Login

    Hourly Weather Darwen

    Today, 24 June, Monday

    Time Temperature Precipitation Wind Pressure Humidity
    00:00 +13°C° 0 mm 6 mps 744 mmHg 89%
    01:00 +13°C° 0.6 mm 5 mps 744 mmHg 90%
    02:00 +13°C° 0.6 mm 5 mps 743 mmHg 91%
    03:00 +13°C° 0.6 mm 4 mps 743 mmHg 93%
    04:00 +14°C° 0.2 mm 4 mps 743 mmHg 92%
    05:00 +14°C° 0.2 mm 3 mps 743 mmHg 92%
    06:00 +16°C° 0.2 mm 3 mps 743 mmHg 92%
    07:00 +17°C° 0.2 mm 2 mps 743 mmHg 89%
    08:00 +18°C° 0.2 mm 2 mps 743 mmHg 86%
    09:00 +20°C° 0.2 mm 1 mps 743 mmHg 83%
    10:00 +20°C° 0.2 mm 1 mps 743 mmHg 82%
    11:00 +21°C° 0.2 mm 1 mps 743 mmHg 82%
    12:00 +21°C° 0.2 mm 1 mps 743 mmHg 82%
    13:00 +21°C° 0.2 mm 1 mps 744 mmHg 83%
    14:00 +21°C° 0.2 mm 1 mps 744 mmHg 84%
    15:00 +19°C° 0.2 mm 2 mps 744 mmHg 85%
    16:00 +19°C° 0.1 mm 2 mps 744 mmHg 85%
    17:00 +19°C° 0.1 mm 2 mps 744 mmHg 84%
    18:00 +19°C° 0.1 mm 3 mps 744 mmHg 84%
    19:00 +18°C° 0 mm 2 mps 745 mmHg 86%
    20:00 +17°C° 0 mm 2 mps 745 mmHg 89%
    21:00 +15°C° 0 mm 1 mps 746 mmHg 91%
    22:00 +15°C° 0 mm 1 mps 746 mmHg 92%
    23:00 +15°C° 0 mm 1 mps 746 mmHg 93%

    Tomorrow, 25 June, Tuesday

    Time Temperature Precipitation Wind Pressure Humidity
    00:00 +14°C° 0 mm 1 mps 746 mmHg 94%
    01:00 +14°C° 0 mm 1 mps 746 mmHg 94%
    02:00 +14°C° 0 mm 1 mps 746 mmHg 94%
    03:00 +15°C° 0 mm 1 mps 746 mmHg 94%
    04:00 +15°C° 0.2 mm 1 mps 746 mmHg 93%
    05:00 +15°C° 0.2 mm 2 mps 746 mmHg 93%
    06:00 +16°C° 0.2 mm 2 mps 746 mmHg 92%
    07:00 +15°C° 0.5 mm 2 mps 746 mmHg 92%
    08:00 +14°C° 0.5 mm 3 mps 746 mmHg 92%
    09:00 +14°C° 0.5 mm 3 mps 747 mmHg 92%
    10:00 +14°C° 1 mm 3 mps 747 mmHg 92%
    11:00 +13°C° 1 mm 3 mps 747 mmHg 92%
    12:00 +13°C° 1 mm 3 mps 747 mmHg 92%
    13:00 +13°C° 0.8 mm 3 mps 747 mmHg 92%
    14:00 +13°C° 0.8 mm 3 mps 747 mmHg 92%
    15:00 +13°C° 0.8 mm 3 mps 748 mmHg 91%
    16:00 +13°C° 0 mm 3 mps 748 mmHg 91%
    17:00 +14°C° 0 mm 2 mps 748 mmHg 91%
    18:00 +14°C° 0 mm 2 mps 748 mmHg 90%
    19:00 +14°C° 0 mm 2 mps 749 mmHg 91%
    20:00 +14°C° 0 mm 2 mps 750 mmHg 92%
    21:00 +14°C° 0 mm 2 mps 750 mmHg 92%
    22:00 +14°C° 0 mm 2 mps 751 mmHg 92%
    23:00 +14°C° 0 mm 2 mps 751 mmHg 92%

    Day after tomorrow, 26 June, Wednesday

    Time Temperature Precipitation Wind Pressure Humidity
    00:00 +13°C° 0 mm 1 mps 751 mmHg 92%
    01:00 +13°C° 0 mm 2 mps 751 mmHg 92%
    02:00 +13°C° 0 mm 2 mps 751 mmHg 92%
    03:00 +12°C° 0 mm 2 mps 751 mmHg 92%
    04:00 +13°C° 0 mm 2 mps 752 mmHg 90%
    05:00 +13°C° 0 mm 2 mps 752 mmHg 88%
    06:00 +14°C° 0 mm 2 mps 753 mmHg 87%
    07:00 +14°C° 0 mm 2 mps 753 mmHg 84%
    08:00 +14°C° 0 mm 3 mps 753 mmHg 82%
    09:00 +16°C° 0 mm 3 mps 753 mmHg 79%
    10:00 +16°C° 0 mm 3 mps 754 mmHg 77%
    11:00 +17°C° 0 mm 3 mps 754 mmHg 75%
    12:00 +18°C° 0 mm 3 mps 754 mmHg 72%
    13:00 +18°C° 0 mm 4 mps 754 mmHg 72%
    14:00 +18°C° 0 mm 4 mps 754 mmHg 72%
    15:00 +18°C° 0 mm 4 mps 754 mmHg 72%
    16:00 +18°C° 0 mm 4 mps 754 mmHg 73%
    17:00 +18°C° 0 mm 4 mps 754 mmHg 74%
    18:00 +17°C° 0 mm 4 mps 754 mmHg 75%
    19:00 +15°C° 0 mm 4 mps 754 mmHg 77%
    20:00 +13°C° 0 mm 3 mps 754 mmHg 80%
    21:00 +11°C° 0 mm 3 mps 754 mmHg 82%
    22:00 +11°C° 0 mm 3 mps 755 mmHg 81%
    23:00 +10°C° 0 mm 3 mps 755 mmHg 80%

    27 June, Thursday

    Time Temperature Precipitation Wind Pressure Humidity
    00:00 +9°C° 0 mm 2 mps 755 mmHg 78%
    01:00 +9°C° 0 mm 2 mps 754 mmHg 77%
    02:00 +9°C° 0 mm 2 mps 754 mmHg 75%
    03:00 +9°C° 0 mm 2 mps 754 mmHg 73%
    04:00 +9°C° 0 mm 2 mps 754 mmHg 72%
    05:00 +10°C° 0 mm 2 mps 754 mmHg 70%
    06:00 +11°C° 0 mm 3 mps 754 mmHg 69%
    07:00 +12°C° 0 mm 3 mps 754 mmHg 65%
    08:00 +14°C° 0 mm 4 mps 754 mmHg 60%
    09:00 +16°C° 0 mm 5 mps 754 mmHg 56%
    10:00 +17°C° 0 mm 5 mps 754 mmHg 57%
    11:00 +19°C° 0 mm 5 mps 754 mmHg 58%
    12:00 +20°C° 0 mm 5 mps 753 mmHg 59%
    13:00 +21°C° 0 mm 5 mps 753 mmHg 60%
    14:00 +21°C° 0 mm 5 mps 753 mmHg 60%
    15:00 +21°C° 0 mm 5 mps 752 mmHg 61%
    16:00 +21°C° 0 mm 5 mps 752 mmHg 63%
    17:00 +20°C° 0 mm 5 mps 752 mmHg 65%
    18:00 +19°C° 0 mm 5 mps 752 mmHg 67%
    19:00 +17°C° 0 mm 5 mps 752 mmHg 69%
    20:00 +15°C° 0 mm 5 mps 752 mmHg 70%
    21:00 +14°C° 0 mm 5 mps 752 mmHg 72%
    22:00 +13°C° 0 mm 5 mps 752 mmHg 75%
    23:00 +12°C° 0 mm 4 mps 751 mmHg 78%

    28 June, Friday

    Time Temperature Precipitation Wind Pressure Humidity
    00:00 +11°C° 0 mm 4 mps 751 mmHg 81%
    01:00 +11°C° 0 mm 4 mps 751 mmHg 83%
    02:00 +11°C° 0 mm 4 mps 751 mmHg 85%
    03:00 +10°C° 0 mm 4 mps 751 mmHg 87%
    04:00 +11°C° 0 mm 4 mps 750 mmHg 85%
    05:00 +11°C° 0 mm 4 mps 750 mmHg 83%
    06:00 +12°C° 0 mm 4 mps 750 mmHg 81%
    07:00 +13°C° 0 mm 5 mps 750 mmHg 77%
    08:00 +15°C° 0 mm 5 mps 749 mmHg 72%
    09:00 +16°C° 0 mm 5 mps 749 mmHg 67%
    10:00 +19°C° 0 mm 6 mps 749 mmHg 64%
    11:00 +20°C° 0 mm 6 mps 749 mmHg 62%
    12:00 +22°C° 0 mm 6 mps 748 mmHg 59%
    13:00 +22°C° 0 mm 6 mps 748 mmHg 59%
    14:00 +23°C° 0 mm 6 mps 747 mmHg 59%
    15:00 +23°C° 0 mm 7 mps 747 mmHg 59%
    16:00 +22°C° 0 mm 6 mps 746 mmHg 63%
    17:00 +22°C° 0 mm 5 mps 746 mmHg 66%
    18:00 +21°C° 0 mm 5 mps 746 mmHg 69%
    19:00 +20°C° 0 mm 5 mps 745 mmHg 70%
    20:00 +19°C° 0 mm 5 mps 745 mmHg 70%
    21:00 +16°C° 0 mm 5 mps 745 mmHg 70%
    22:00 +16°C° 0 mm 5 mps 745 mmHg 71%
    23:00 +15°C° 0 mm 4 mps 744 mmHg 72%

    29 June, Saturday

    Time Temperature Precipitation Wind Pressure Humidity
    00:00 +14°C° 0 mm 3 mps 744 mmHg 73%
    01:00 +16°C° 0 mm 3 mps 743 mmHg 72%
    02:00 +16°C° 0 mm 3 mps 743 mmHg 71%
    03:00 +16°C° 0 mm 2 mps 742 mmHg 70%
    04:00 +16°C° 0 mm 2 mps 742 mmHg 73%
    05:00 +16°C° 0 mm 2 mps 741 mmHg 76%
    06:00 +16°C° 0 mm 1 mps 741 mmHg 78%
    07:00 +18°C° 0.1 mm 2 mps 741 mmHg 77%
    08:00 +19°C° 0.1 mm 2 mps 741 mmHg 76%
    09:00 +20°C° 0.1 mm 2 mps 741 mmHg 76%
    10:00 +20°C° 0 mm 3 mps 741 mmHg 75%
    11:00 +21°C° 0 mm 3 mps 741 mmHg 75%
    12:00 +21°C° 0 mm 4 mps 740 mmHg 74%
    13:00 +22°C° 0 mm 4 mps 740 mmHg 69%
    14:00 +22°C° 0 mm 5 mps 740 mmHg 65%
    15:00 +22°C° 0 mm 5 mps 740 mmHg 60%
    16:00 +21°C° 0 mm 5 mps 740 mmHg 63%
    17:00 +20°C° 0 mm 5 mps 740 mmHg 66%
    18:00 +20°C° 0 mm 6 mps 740 mmHg 69%
    19:00 +17°C° 0 mm 5 mps 740 mmHg 72%
    20:00 +16°C° 0 mm 5 mps 740 mmHg 75%
    21:00 +15°C° 0 mm 4 mps 741 mmHg 78%
    22:00 +14°C° 0 mm 4 mps 741 mmHg 80%
    23:00 +14°C° 0 mm 4 mps 740 mmHg 82%
    Show more